This demonstration page uses our WeatherBlox Daily Observations layout. Learn more.

Left ArrowRight Arrow

39.29038, -76.61219

Hourly Observations for February 2, 2019

Temp ( °F °C ) Dew Point ( °F °C ) Humidity (%) Winds ( mph kmh ) Pressure ( in mb ) Visibility ( mi km ) Precip ( " mm )
12:54 am 00:54 undefined 20 -6.7 13 -10.6 74 74 undefined N/A 30.43 1031 N/A 0.00 0.00
1:54 am 01:54 undefined 20 -6.7 11 -11.7 68 68 undefined N/A 30.42 1030 N/A 0.00 0.00
2:54 am 02:54 undefined 20 -6.7 12 -11.1 71 71 undefined N/A 30.41 1030 N/A 0.00 0.00
3:54 am 03:54 undefined 19 -7.2 12 -11.1 74 74 undefined N/A 30.38 1029 N/A 0.00 0.00
4:54 am 04:54 undefined 17 -8.3 11 -11.7 77 77 undefined N/A 30.39 1029 N/A 0.00 0.00
5:54 am 05:54 undefined 17 -8.3 10 -12.2 74 74 undefined N/A 30.40 1029 N/A 0.00 0.00
6:54 am 06:54 undefined 17 -8.3 11 -11.7 77 77 undefined N/A 30.38 1029 N/A 0.00 0.00
7:54 am 07:54 undefined 18 -7.8 12 -11.1 77 77 undefined N/A 30.40 1029 N/A 0.00 0.00
8:54 am 08:54 undefined 19 -7.2 12 -11.1 74 74 undefined N/A 30.41 1030 N/A 0.00 0.00
9:54 am 09:54 undefined 23 -5 15 -9.4 72 72 undefined N/A 30.41 1030 N/A 0.00 0.00
10:54 am 10:54 undefined 27 -2.8 17 -8.3 66 66 undefined N/A 30.41 1030 N/A 0.00 0.00
11:54 am 11:54 undefined 31 -0.6 20 -6.7 64 64 undefined N/A 30.36 1028 N/A 0.00 0.00
12:54 pm 12:54 undefined 33 0.6 21 -6.1 61 61 undefined N/A 30.31 1027 N/A 0.00 0.00
1:54 pm 13:54 undefined 35 1.7 21 -6.1 57 57 undefined N/A 30.27 1025 N/A 0.00 0.00
2:54 pm 14:54 undefined 36 2.2 23 -5 59 59 undefined N/A 30.22 1024 N/A 0.00 0.00
3:54 pm 15:54 undefined 35 1.7 24 -4.4 64 64 undefined N/A 30.19 1023 N/A 0.00 0.00
4:54 pm 16:54 undefined 33 0.6 24 -4.4 70 70 undefined N/A 30.18 1022 N/A 0.00 0.00
5:54 pm 17:54 undefined 32 0 24 -4.4 73 73 undefined N/A 30.18 1022 N/A 0.00 0.00
6:54 pm 18:54 undefined 32 0 24 -4.4 73 73 undefined N/A 30.19 1022 N/A 0.00 0.00
7:54 pm 19:54 undefined 32 0 25 -3.9 75 75 undefined N/A 30.18 1022 N/A 0.00 0.00
8:54 pm 20:54 undefined 31 -0.6 24 -4.4 76 76 undefined N/A 30.18 1022 N/A 0.00 0.00
9:54 pm 21:54 undefined 31 -0.6 24 -4.4 76 76 undefined N/A 30.18 1022 N/A 0.00 0.00
10:54 pm 22:54 undefined 31 -0.6 24 -4.4 76 76 undefined N/A 30.17 1022 N/A 0.00 0.00
11:54 pm 23:54 undefined 31 -0.6 25 -3.9 79 79 undefined N/A 30.16 1021 N/A 0.00 0.00

Powered by AerisWeather